Location: Coopersdale
(40.3556°N, 78.9372°W)
Time: 10:18:11
(UTC+00:00)

Vanguard 1 - Pass Details

Date: 22 January 2021
Orbit: 649 x 3834 km, 34.2° (Epoch: 07 March)

Event Time Altitude Azimuth Distance (km) Brightness Sun altitude
Rises 22:51:58 0° 277° (W) 7,774 15.9 -6.0°
Reaches altitude 10° 22:57:09 10° 275° (W) 6,884 15.6 -6.9°
Maximum altitude 23:20:14 63° 202° (SSW) 3,721 13.1 -11.1°
Drops below altitude 10° 23:36:47 10° 125° (SE) 5,159 13.3 -14.2°
Sets 23:40:02 0° 122° (ESE) 5,822 13.6 -14.8°
